Location: Doughton Park
(36.4224°N, 81.1835°W)
Time: 12:34:19
(UTC-04:00)

ISS - All Passes

Search period start: 21 May 2018 00:00
Search period end: 31 May 2018 00:00
Orbit: 402 x 407 km, 51.6° (Epoch: 22 May)

Date Brightness Start Highest point End Pass type
(mag) Time Alt. Az. Time Alt. Az. Time Alt. Az.
21 May - 04:11:38 10° NNW 04:14:18 22° NNE 04:16:57 10° E visible
21 May - 05:47:49 10° WNW 05:50:49 34° SW 05:53:48 10° SSE daylight
21 May - 20:49:55 10° S 20:52:33 22° SE 20:55:11 10° ENE daylight
21 May - 22:25:58 10° W 22:28:55 30° NW 22:31:51 10° NNE visible
22 May - 03:19:57 10° N 03:21:54 15° NNE 03:23:50 10° ENE visible
22 May - 04:55:27 10° NW 04:58:44 77° SW 05:01:58 10° SE visible
22 May - 19:59:33 10° SE 20:00:33 11° SE 20:01:34 10° ESE daylight
22 May - 21:33:25 10° WSW 21:36:38 58° NW 21:39:52 10° NE visible
22 May - 23:12:42 10° NW 23:13:41 11° NNW 23:14:42 10° N visible
23 May - 02:28:57 10° NNE 02:29:24 10° NNE 02:29:52 10° NNE visible
23 May - 04:03:20 10° NW 04:06:31 50° NE 04:09:42 10° ESE visible
23 May - 05:41:05 10° W 05:42:40 13° SW 05:44:14 10° SSW visible
23 May - 20:41:13 10° SW 20:44:27 64° SE 20:47:42 10° NE daylight
23 May - 22:19:05 10° WNW 22:21:13 16° NNW 22:23:20 10° NNE visible
24 May - 03:11:23 10° NNW 03:14:13 27° NNE 03:17:03 10° E visible
24 May - 04:47:51 10° WNW 04:50:39 26° SW 04:53:25 10° S visible
24 May - 19:49:27 10° SSW 19:52:20 29° SE 19:55:13 10° ENE daylight
24 May - 21:26:01 10° W 21:28:48 25° NNW 21:31:35 10° NNE visible
25 May - 02:19:34 10° NNW 02:21:49 17° NNE 02:24:03 10° ENE visible
25 May - 03:55:19 10° WNW 03:58:32 57° SW 04:01:43 10° SE night (unlit)
25 May - 18:58:24 10° SSE 19:00:17 14° SE 19:02:09 10° E daylight
25 May - 20:33:18 10° WSW 20:36:28 45° NW 20:39:38 10° NE daylight
26 May - 01:28:06 10° N 01:29:19 12° NNE 01:30:32 10° NE visible
26 May - 03:03:04 10° NW 03:06:19 65° NE 03:09:34 10° ESE night (unlit)
26 May - 19:40:56 10° SW 19:44:12 86° SE 19:47:29 10° NE daylight
26 May - 21:19:14 10° WNW 21:21:04 14° NNW 21:22:53 10° N visible
27 May - 02:11:01 10° NNW 02:14:01 33° NE 02:17:00 10° ESE visible
27 May - 03:47:50 10° W 03:50:20 20° SW 03:52:49 10° S night (unlit)
27 May - 18:48:57 10° SSW 18:52:01 38° SE 18:55:05 10° ENE daylight
27 May - 20:25:59 10° W 20:28:35 21° NNW 20:31:10 10° NNE daylight
28 May - 01:19:07 10° NNW 01:21:36 20° NNE 01:24:06 10° E visible
28 May - 02:55:06 10° WNW 02:58:13 42° SW 03:01:19 10° SSE night (unlit)
28 May - 17:57:32 10° S 17:59:54 19° SE 18:02:16 10° E daylight
28 May - 19:33:07 10° WSW 19:36:10 36° NW 19:39:14 10° NNE daylight
29 May - 00:27:27 10° N 00:29:06 13° NNE 00:30:45 10° NE visible
29 May - 02:02:44 10° NW 02:06:00 86° NE 02:09:15 10° SE night (unlit)
29 May - 18:40:35 10° SW 18:43:51 73° NW 18:47:07 10° NE daylight
29 May - 20:19:23 10° NW 20:20:49 12° NNW 20:22:14 10° N daylight
30 May - 01:10:34 10° NW 01:13:41 41° NE 01:16:47 10° ESE visible
30 May - 02:47:49 10° W 02:49:54 16° SW 02:51:59 10° SSW night (unlit)
30 May - 17:48:25 10° SSW 17:51:35 50° SE 17:54:46 10° ENE daylight
30 May - 19:25:54 10° WNW 19:28:16 18° NNW 19:30:37 10° NNE daylight
